TimeEDT,TemperatureF,Dew PointF,Humidity,Sea Level PressureIn,VisibilityMPH,Wind Direction,Wind SpeedMPH,Gust SpeedMPH,PrecipitationIn,Events,Conditions,WindDirDegrees,DateUTC
12:05 AM,48.2,46.4,93,29.90,1.8,SE,17.3,23.0,N/A,Rain,Heavy Rain,130,2013-04-18 04:05:00
12:18 AM,48.2,46.4,93,29.88,3.0,SE,17.3,-,0.34,Rain,Light Rain,130,2013-04-18 04:18:00
12:25 AM,48.2,46.4,93,29.86,8.0,ESE,23.0,26.5,0.34,Rain,Light Rain,120,2013-04-18 04:25:00
12:52 AM,48.2,46.4,93,29.88,9.0,ESE,13.8,-,0.34,,Overcast,110,2013-04-18 04:52:00
12:54 AM,48.9,46.0,90,29.89,9.0,ESE,11.5,-,0.34,,Overcast,110,2013-04-18 04:54:00
1:54 AM,48.0,45.0,89,29.84,10.0,ESE,16.1,-,0.00,,Overcast,120,2013-04-18 05:54:00
2:54 AM,48.9,46.0,90,29.79,6.0,ESE,10.4,-,N/A,,Overcast,120,2013-04-18 06:54:00
3:54 AM,51.1,48.0,89,29.77,9.0,SSE,6.9,-,0.00,,Mostly Cloudy,150,2013-04-18 07:54:00
4:37 AM,51.8,48.2,88,29.77,6.0,North,9.2,-,N/A,,Overcast,10,2013-04-18 08:37:00
4:54 AM,51.1,48.9,92,29.75,5.0,East,4.6,-,N/A,,Overcast,80,2013-04-18 08:54:00
5:07 AM,51.8,48.2,88,29.73,6.0,ESE,5.8,-,0.00,,Mostly Cloudy,110,2013-04-18 09:07:00
5:14 AM,51.8,48.2,88,29.73,5.0,East,4.6,-,0.00,,Scattered Clouds,90,2013-04-18 09:14:00
5:54 AM,52.0,50.0,93,29.70,7.0,ESE,6.9,-,0.00,,Partly Cloudy,120,2013-04-18 09:54:00
6:54 AM,57.9,55.0,90,29.66,10.0,SSE,12.7,-,N/A,,Clear,160,2013-04-18 10:54:00
7:54 AM,63.0,57.9,84,29.65,10.0,South,13.8,21.9,N/A,,Mostly Cloudy,170,2013-04-18 11:54:00
8:54 AM,68.0,62.1,81,29.61,10.0,South,16.1,25.3,0.02,,Clear,180,2013-04-18 12:54:00
9:54 AM,71.1,63.0,75,29.58,10.0,South,23.0,29.9,0.01,,Mostly Cloudy,180,2013-04-18 13:54:00
10:54 AM,71.1,63.0,75,29.55,10.0,SSW,21.9,35.7,0.01,Rain,Light Rain,200,2013-04-18 14:54:00
11:54 AM,66.9,57.9,73,29.61,10.0,WSW,24.2,32.2,0.00,Rain,Light Rain,240,2013-04-18 15:54:00
12:43 PM,64.4,60.8,88,29.62,10.0,SW,18.4,24.2,0.01,Rain,Light Rain,220,2013-04-18 16:43:00
12:54 PM,64.9,60.1,84,29.64,10.0,SW,19.6,28.8,0.01,Rain,Light Rain,220,2013-04-18 16:54:00
1:27 PM,62.6,60.8,94,29.64,9.0,SSW,15.0,24.2,0.02,Rain,Light Rain,210,2013-04-18 17:27:00
1:35 PM,62.6,60.8,94,29.62,10.0,SSW,12.7,21.9,0.02,Rain,Light Rain,200,2013-04-18 17:35:00
1:54 PM,63.0,60.1,90,29.62,10.0,South,10.4,25.3,0.03,Rain,Light Rain,190,2013-04-18 17:54:00
2:54 PM,63.0,60.1,90,29.65,10.0,SSW,13.8,-,0.03,Rain,Light Rain,200,2013-04-18 18:54:00
3:54 PM,63.0,60.1,90,29.65,10.0,South,13.8,-,0.03,Rain,Light Rain,190,2013-04-18 19:54:00
4:54 PM,63.0,60.1,90,29.65,10.0,South,18.4,24.2,0.02,Rain,Light Rain,190,2013-04-18 20:54:00
5:03 PM,62.6,60.8,94,29.65,2.0,South,12.7,23.0,0.00,Rain,Light Rain,190,2013-04-18 21:03:00
5:14 PM,62.6,59.0,88,29.66,2.0,South,19.6,25.3,0.01,Rain,Rain,190,2013-04-18 21:14:00
5:49 PM,62.6,59.0,88,29.64,10.0,South,15.0,-,0.06,Rain,Light Rain,190,2013-04-18 21:49:00
5:54 PM,61.0,59.0,93,29.63,10.0,South,15.0,-,0.07,Rain,Rain,190,2013-04-18 21:54:00
6:02 PM,60.8,59.0,94,29.63,9.0,South,11.5,-,0.01,Rain,Light Rain,180,2013-04-18 22:02:00
6:54 PM,61.0,57.9,90,29.62,10.0,South,15.0,-,0.06,Rain,Light Rain,180,2013-04-18 22:54:00
7:54 PM,61.0,57.9,90,29.55,10.0,SSE,15.0,-,0.05,Rain,Light Rain,150,2013-04-18 23:54:00
8:54 PM,60.1,57.9,93,29.54,6.0,SSE,18.4,28.8,0.07,Rain,Rain,160,2013-04-19 00:54:00
9:54 PM,60.1,57.0,90,29.55,6.0,SSE,17.3,-,0.11,Rain,Rain,150,2013-04-19 01:54:00
10:17 PM,60.8,57.2,88,29.54,9.0,SSE,18.4,27.6,0.03,Rain,Rain,150,2013-04-19 02:17:00
10:24 PM,60.8,57.2,88,29.54,10.0,SSE,19.6,26.5,0.03,Rain,Light Rain,160,2013-04-19 02:24:00
10:54 PM,60.1,57.0,90,29.52,7.0,SSE,16.1,24.2,0.08,Rain,Light Rain,160,2013-04-19 02:54:00
11:17 PM,59.0,55.4,88,29.54,3.0,WSW,19.6,27.6,0.13,Rain,Heavy Rain,240,2013-04-19 03:17:00
11:32 PM,55.4,53.6,94,29.52,6.0,SSW,13.8,19.6,0.19,Rain,Rain,200,2013-04-19 03:32:00
11:39 PM,55.4,53.6,94,29.52,5.0,SSW,10.4,-,0.21,Rain,Rain,210,2013-04-19 03:39:00
11:54 PM,55.0,53.1,93,29.53,6.0,SW,16.1,-,0.26,Rain,Rain,220,2013-04-19 03:54:00